Location: Stanford
(52.2833°N, 2.4333°W)
Time: 01:46:10
(UTC+00:00)

Cosmos 1777 Rocket - Pass Details

Date: 22 January 2021
Orbit: 758 x 776 km, 74.0° (Epoch: 24 February)

Event Time Altitude Azimuth Distance (km) Brightness Sun altitude
Rises 17:40:06 0° 190° (S) 3,229 7.7 -9.2°
Reaches altitude 10° 17:42:29 10° 186° (S) 2,309 6.8 -9.6°
Maximum altitude 17:47:37 57° 109° (ESE) 910 4.1 -10.3°
Drops below altitude 10° 17:52:48 10° 32° (NNE) 2,335 6.1 -11.1°
Enters shadow 17:53:45 - 30° (NNE) 2,699 6.4 -11.2°
